[[{"header":{"parameterUnit":"m.s-1","parameterCategory":1,"la1":30.2992,"la2":30.254,"lo1":-89.0895,"lo2":-89.0443,"dy":0.0025,"dx":0.0025,"nx":19,"ny":19,"refTime":"2026-05-03T21:00:00:Z","depth":0,"parameterNumber":2,"parameterNumberName":"U-component_of_WINDS"},"data":[0,0,0,-0.8847,-0.8848,-0.8928,-0.8928,-0.9016,-0.9017,0,0,0,0,0,0,0,0,0,0,0,-0.8817,-0.8817,-0.8846,-0.8848,-0.8928,-0.8928,-0.9016,-0.9017,0,0,0,0,0,0,0,0,0,0,0,-0.8817,-0.8817,-0.8818,-0.8849,-0.8928,-0.8928,-0.9016,-0.896,0,0,0,0,0,0,0,0,0,0,-0.8885,-0.8852,-0.8817,-0.8818,-0.8849,-0.8927,-0.8928,-0.8958,-0.8964,-0.8975,0,-0.8985,0,-0.9002,-0.9022,-0.9022,0,0,0,-0.8853,-0.8847,-0.8874,-0.8818,-0.885,-0.8927,-0.8893,-0.8961,-0.8968,-0.8982,-0.8986,-0.899,-0.9003,-0.9022,-0.9023,-0.9075,-0.9075,0,0,-0.8848,-0.8827,-0.887,-0.8878,-0.8867,-0.889,-0.8895,-0.8965,-0.8967,-0.8986,-0.8992,-0.9005,-0.9023,-0.9024,-0.9075,-0.9075,0,0,0,-0.8833,-0.8824,-0.885,-0.8874,-0.889,-0.8893,-0.8898,-0.8964,-0.8974,-0.8993,-0.9006,-0.9023,-0.9024,-0.9075,-0.9075,-0.9057,0,0,0,-0.883,-0.8815,-0.8848,-0.8836,-0.8888,-0.8928,-0.8895,-0.8969,-0.8978,-0.9006,-0.9023,-0.9025,-0.9075,-0.9075,-0.9057,-0.9052,0,0,0,-0.8814,-0.8813,-0.8823,-0.8835,-0.8868,-0.8928,-0.8942,-0.8972,-0.8986,-0.9022,-0.9025,-0.9075,-0.9075,-0.9058,-0.9052,-0.9058,0,0,0,-0.879,-0.8806,-0.8822,-0.8845,-0.8867,-0.8916,-0.8942,-0.8979,-0.9008,-0.9024,-0.9075,-0.9075,-0.9058,-0.9053,-0.9059,-0.906,-0.9058,0,0,-0.8799,-0.8806,-0.8821,-0.8838,-0.8879,-0.8906,-0.8943,-0.899,-0.9011,-0.9052,-0.9053,-0.9057,-0.9052,-0.9058,-0.9058,-0.9057,0,0,0,-0.8817,-0.8827,-0.8843,-0.887,-0.8905,-0.8935,-0.8977,-0.8993,-0.9029,-0.9029,-0.9062,-0.906,-0.9064,-0.9065,-0.9064,-0.9069,-0.9075,-0.9075,-0.9075,-0.88,-0.8827,-0.8853,-0.8889,-0.8914,-0.8957,-0.8979,-0.9008,-0.9029,-0.9035,-0.9048,-0.9045,-0.9046,-0.9045,-0.9049,-0.9051,-0.9051,-0.9051,-0.9051,-0.8815,-0.8834,-0.8859,-0.8893,-0.892,-0.8948,-0.8988,-0.9001,-0.903,-0.9038,-0.9043,-0.905,-0.9043,-0.9048,-0.9049,-0.905,-0.905,-0.905,-0.905,-0.8808,-0.8821,-0.8841,-0.8881,-0.8908,-0.8943,-0.8969,-0.8993,-0.9015,-0.9021,-0.9035,-0.9035,-0.9038,-0.9026,-0.9026,-0.9026,-0.9026,-0.9026,-0.9026,-0.8792,-0.8814,-0.8834,-0.8871,-0.8891,-0.8919,-0.8959,-0.8978,-0.9005,-0.902,-0.902,-0.9038,-0.9037,-0.9036,-0.9026,-0.9026,-0.9026,-0.9026,-0.9026,-0.8797,-0.8799,-0.883,-0.8849,-0.8893,-0.8917,-0.8946,-0.8982,-0.9001,-0.9012,-0.9028,-0.9025,-0.9034,-0.9035,-0.9034,-0.9024,-0.9024,-0.9024,-0.9024,-0.879,-0.8797,-0.8832,-0.8861,-0.8891,-0.892,-0.8951,-0.8981,-0.9012,-0.9025,-0.903,-0.9031,-0.9031,-0.904,-0.9041,-0.9041,-0.9032,-0.9032,-0.9032,-0.8794,-0.8804,-0.8828,-0.8859,-0.8895,-0.8924,-0.8953,-0.8982,-0.9018,-0.9033,-0.9035,-0.9035,-0.9037,-0.9036,-0.9052,-0.9053,-0.9053,0,0]},{"header":{"parameterUnit":"m.s-1","parameterCategory":1,"la1":30.2992,"la2":30.254,"lo1":-89.0895,"lo2":-89.0443,"dy":0.0025,"dx":0.0025,"nx":19,"ny":19,"refTime":"2026-05-03T21:00:00:Z","depth":0,"parameterNumber":3,"parameterNumberName":"V-component_of_WINDS"},"data":[0,0,0,-1.3617,-1.3616,-1.3536,-1.3536,-1.3446,-1.3446,0,0,0,0,0,0,0,0,0,0,0,-1.3649,-1.3649,-1.3617,-1.3615,-1.3536,-1.3536,-1.3446,-1.3446,0,0,0,0,0,0,0,0,0,0,0,-1.365,-1.3649,-1.3649,-1.3615,-1.3537,-1.3536,-1.3446,-1.3502,0,0,0,0,0,0,0,0,0,0,-1.3576,-1.3616,-1.3649,-1.3649,-1.3615,-1.3537,-1.3536,-1.3504,-1.3498,-1.3487,0,-1.3482,0,-1.3462,-1.344,-1.344,0,0,0,-1.3608,-1.3621,-1.3591,-1.3649,-1.3614,-1.3537,-1.357,-1.3501,-1.3494,-1.348,-1.3481,-1.3477,-1.3461,-1.344,-1.344,-1.3403,-1.3403,0,0,-1.3613,-1.364,-1.3596,-1.3587,-1.3602,-1.3573,-1.3568,-1.3496,-1.3499,-1.348,-1.3474,-1.3459,-1.3439,-1.3439,-1.3402,-1.3403,0,0,0,-1.363,-1.3643,-1.3615,-1.3591,-1.3576,-1.3571,-1.3565,-1.3502,-1.349,-1.3473,-1.3458,-1.3439,-1.3438,-1.3402,-1.3402,-1.3436,0,0,0,-1.3632,-1.3653,-1.3617,-1.3633,-1.3578,-1.3539,-1.3572,-1.3495,-1.3486,-1.3459,-1.3439,-1.3437,-1.3402,-1.3402,-1.3435,-1.3447,0,0,0,-1.3651,-1.3655,-1.3647,-1.3635,-1.3602,-1.3539,-1.3523,-1.3493,-1.3478,-1.344,-1.3437,-1.3402,-1.3402,-1.3433,-1.3445,-1.3444,0,0,0,-1.3679,-1.3679,-1.3648,-1.3641,-1.3603,-1.3561,-1.3524,-1.3491,-1.3463,-1.3439,-1.3402,-1.3402,-1.3433,-1.3444,-1.3443,-1.3448,-1.3453,0,0,-1.3693,-1.3681,-1.3675,-1.3645,-1.3616,-1.3571,-1.3545,-1.3494,-1.3465,-1.3424,-1.3423,-1.3435,-1.3445,-1.3444,-1.3471,-1.3475,0,0,0,-1.3688,-1.3684,-1.367,-1.3645,-1.3605,-1.3572,-1.3521,-1.3501,-1.3465,-1.345,-1.3434,-1.3439,-1.3437,-1.3438,-1.3441,-1.3437,-1.3404,-1.3404,-1.3404,-1.3747,-1.371,-1.3696,-1.3649,-1.3624,-1.3571,-1.3547,-1.351,-1.3481,-1.3477,-1.3465,-1.3486,-1.3489,-1.3491,-1.3487,-1.3465,-1.3465,-1.3465,-1.3466,-1.3763,-1.375,-1.3709,-1.3681,-1.3641,-1.3616,-1.3563,-1.3542,-1.3512,-1.3493,-1.349,-1.3473,-1.3497,-1.3491,-1.3468,-1.3467,-1.3467,-1.3467,-1.3467,-1.3797,-1.3784,-1.376,-1.3718,-1.3688,-1.364,-1.3612,-1.3576,-1.3542,-1.3539,-1.3521,-1.352,-1.3514,-1.3533,-1.3533,-1.3533,-1.3533,-1.3533,-1.3533,-1.3842,-1.3813,-1.3795,-1.3751,-1.3729,-1.3694,-1.3638,-1.3614,-1.3578,-1.3554,-1.3554,-1.3523,-1.3506,-1.3502,-1.3534,-1.3534,-1.3534,-1.3534,-1.3533,-1.3871,-1.3858,-1.383,-1.3807,-1.3751,-1.3723,-1.3677,-1.3631,-1.3606,-1.3592,-1.3561,-1.3555,-1.354,-1.3537,-1.3533,-1.3571,-1.3571,-1.3571,-1.3571,-1.3899,-1.3888,-1.3849,-1.3815,-1.3777,-1.3732,-1.3698,-1.3653,-1.3605,-1.3586,-1.3575,-1.3567,-1.3566,-1.3551,-1.3548,-1.3544,-1.3583,-1.3583,-1.3583,-1.3914,-1.3897,-1.3877,-1.383,-1.3782,-1.3742,-1.3708,-1.3668,-1.361,-1.3583,-1.357,-1.357,-1.3556,-1.3554,-1.3529,-1.3525,-1.3516,0,0]}]]